Time,TemperatureF,DewpointF,PressureIn,WindDirection,WindDirectionDegrees,WindSpeedMPH,WindSpeedGustMPH,Humidity,HourlyPrecipIn,Conditions,Clouds,dailyrainin,SolarRadiationWatts/m^2,SoftwareType,DateUTC
2013-04-18 00:02:00,55.1,39.2,30.26,North,360,0.0,0.0,55,0.00,,,0.00,0,Wunderground v.1.15,2013-04-18 04:02:00,
2013-04-18 00:08:00,54.8,39.4,30.26,North,360,0.0,0.0,56,0.00,,,0.00,0,Wunderground v.1.15,2013-04-18 04:08:00,
2013-04-18 00:10:00,54.7,39.3,30.26,North,360,0.0,0.0,56,0.00,,,0.00,0,Wunderground v.1.15,2013-04-18 04:10:00,
2013-04-18 00:12:00,54.7,39.8,30.26,North,360,0.0,0.0,57,0.00,,,0.00,0,Wunderground v.1.15,2013-04-18 04:12:00,
2013-04-18 00:18:00,54.4,39.0,30.26,North,360,0.0,0.0,56,0.00,,,0.00,0,Wunderground v.1.15,2013-04-18 04:18:00,
2013-04-18 00:22:00,54.1,39.2,30.26,North,360,0.0,0.0,57,0.00,,,0.00,0,Wunderground v.1.15,2013-04-18 04:22:00,
2013-04-18 00:28:00,53.8,39.4,30.26,North,360,0.0,0.0,58,0.00,,,0.00,0,Wunderground v.1.15,2013-04-18 04:28:00,
2013-04-18 00:34:00,53.5,38.6,30.27,North,360,0.0,0.0,57,0.00,,,0.00,0,Wunderground v.1.15,2013-04-18 04:34:00,
2013-04-18 00:39:00,53.3,39.3,30.27,North,360,0.0,0.0,59,0.00,,,0.00,0,Wunderground v.1.15,2013-04-18 04:39:00,
2013-04-18 00:45:00,52.9,39.4,30.27,North,360,0.0,0.0,60,0.00,,,0.00,0,Wunderground v.1.15,2013-04-18 04:45:00,
2013-04-18 00:52:00,52.6,39.1,30.27,North,360,0.0,0.0,60,0.00,,,0.00,0,Wunderground v.1.15,2013-04-18 04:52:00,
2013-04-18 00:57:00,52.5,39.4,30.27,North,360,0.0,0.0,61,0.00,,,0.00,0,Wunderground v.1.15,2013-04-18 04:57:00,
2013-04-18 01:04:00,52.2,38.7,30.27,North,360,0.0,0.0,60,0.00,,,0.00,0,Wunderground v.1.15,2013-04-18 05:04:00,
2013-04-18 01:09:00,52.0,39.0,30.27,North,360,0.0,0.0,61,0.00,,,0.00,0,Wunderground v.1.15,2013-04-18 05:09:00,
2013-04-18 01:15:00,51.9,39.7,30.27,North,360,0.0,0.0,63,0.00,,,0.00,0,Wunderground v.1.15,2013-04-18 05:15:00,
2013-04-18 01:21:00,51.6,39.4,30.27,North,360,0.0,0.0,63,0.00,,,0.00,0,Wunderground v.1.15,2013-04-18 05:21:00,
2013-04-18 01:27:00,51.3,39.5,30.27,North,360,0.0,0.0,64,0.00,,,0.00,0,Wunderground v.1.15,2013-04-18 05:27:00,
2013-04-18 01:34:00,51.0,38.4,30.26,North,360,0.0,0.0,62,0.00,,,0.00,0,Wunderground v.1.15,2013-04-18 05:34:00,
2013-04-18 01:39:00,50.8,38.2,30.26,North,360,0.0,0.0,62,0.00,,,0.00,0,Wunderground v.1.15,2013-04-18 05:39:00,
2013-04-18 01:45:00,50.7,38.6,30.26,North,360,0.0,0.0,63,0.00,,,0.00,0,Wunderground v.1.15,2013-04-18 05:45:00,
2013-04-18 01:51:00,50.5,38.8,30.26,North,360,0.0,0.0,64,0.00,,,0.00,0,Wunderground v.1.15,2013-04-18 05:51:00,
2013-04-18 01:57:00,50.2,38.9,30.26,North,360,0.0,0.0,65,0.00,,,0.00,0,Wunderground v.1.15,2013-04-18 05:57:00,
2013-04-18 02:05:00,49.9,38.6,30.25,North,360,0.0,0.0,65,0.00,,,0.00,0,Wunderground v.1.15,2013-04-18 06:05:00,
2013-04-18 02:11:00,49.8,38.1,30.25,North,360,0.0,0.0,64,0.00,,,0.00,0,Wunderground v.1.15,2013-04-18 06:11:00,
2013-04-18 02:17:00,49.5,37.8,30.25,North,360,0.0,0.0,64,0.00,,,0.00,0,Wunderground v.1.15,2013-04-18 06:17:00,
2013-04-18 02:25:00,49.2,37.9,30.25,North,360,0.0,0.0,65,0.00,,,0.00,0,Wunderground v.1.15,2013-04-18 06:25:00,
2013-04-18 02:31:00,49.1,37.4,30.25,North,360,0.0,0.0,64,0.00,,,0.00,0,Wunderground v.1.15,2013-04-18 06:31:00,
2013-04-18 02:37:00,48.9,37.6,30.25,North,360,0.0,0.0,65,0.00,,,0.00,0,Wunderground v.1.15,2013-04-18 06:37:00,
2013-04-18 02:43:00,48.8,37.6,30.25,North,360,0.0,0.0,65,0.00,,,0.00,0,Wunderground v.1.15,2013-04-18 06:43:00,
2013-04-18 02:49:00,48.6,37.7,30.26,North,360,0.0,0.0,66,0.00,,,0.00,0,Wunderground v.1.15,2013-04-18 06:49:00,
2013-04-18 02:55:00,48.6,37.7,30.26,North,360,0.0,0.0,66,0.00,,,0.00,0,Wunderground v.1.15,2013-04-18 06:55:00,
2013-04-18 03:00:00,48.5,38.0,30.26,North,360,0.0,0.0,67,0.00,,,0.00,0,Wunderground v.1.15,2013-04-18 07:00:00,
2013-04-18 03:06:00,48.5,38.0,30.26,North,360,0.0,1.0,67,0.00,,,0.00,0,Wunderground v.1.15,2013-04-18 07:06:00,
2013-04-18 03:12:00,48.3,38.2,30.26,North,360,0.0,0.0,68,0.00,,,0.00,0,Wunderground v.1.15,2013-04-18 07:12:00,
2013-04-18 03:18:00,48.2,38.5,30.27,North,360,0.0,1.0,69,0.00,,,0.00,0,Wunderground v.1.15,2013-04-18 07:18:00,
2013-04-18 03:24:00,47.9,38.2,30.27,North,360,0.0,0.0,69,0.00,,,0.00,0,Wunderground v.1.15,2013-04-18 07:24:00,
2013-04-18 03:30:00,47.7,38.4,30.27,North,360,0.0,0.0,70,0.00,,,0.00,0,Wunderground v.1.15,2013-04-18 07:30:00,
2013-04-18 03:35:00,47.6,38.3,30.27,North,360,0.0,0.0,70,0.00,,,0.00,0,Wunderground v.1.15,2013-04-18 07:35:00,
2013-04-18 03:42:00,47.3,38.4,30.27,North,360,0.0,1.0,71,0.00,,,0.00,0,Wunderground v.1.15,2013-04-18 07:42:00,
2013-04-18 03:47:00,47.1,38.2,30.27,North,360,0.0,1.0,71,0.00,,,0.00,0,Wunderground v.1.15,2013-04-18 07:47:00,
2013-04-18 03:54:00,47.0,38.1,30.27,North,360,0.0,0.0,71,0.00,,,0.00,0,Wunderground v.1.15,2013-04-18 07:54:00,
2013-04-18 03:59:00,47.0,38.4,30.27,North,360,0.0,0.0,72,0.00,,,0.00,0,Wunderground v.1.15,2013-04-18 07:59:00,
2013-04-18 04:05:00,47.0,38.4,30.28,North,360,0.0,0.0,72,0.00,,,0.00,0,Wunderground v.1.15,2013-04-18 08:05:00,
2013-04-18 04:11:00,47.0,38.4,30.28,North,360,0.0,0.0,72,0.00,,,0.00,0,Wunderground v.1.15,2013-04-18 08:11:00,
2013-04-18 04:17:00,47.0,38.4,30.27,North,360,0.0,0.0,72,0.00,,,0.00,0,Wunderground v.1.15,2013-04-18 08:17:00,
2013-04-18 04:25:00,47.0,38.4,30.27,North,360,0.0,0.0,72,0.00,,,0.00,0,Wunderground v.1.15,2013-04-18 08:25:00,
2013-04-18 04:31:00,47.0,38.4,30.28,North,360,0.0,0.0,72,0.00,,,0.00,0,Wunderground v.1.15,2013-04-18 08:31:00,
2013-04-18 04:37:00,47.0,38.8,30.28,North,360,0.0,1.0,73,0.00,,,0.00,0,Wunderground v.1.15,2013-04-18 08:37:00,
2013-04-18 04:44:00,47.0,38.8,30.28,North,360,1.0,1.0,73,0.00,,,0.00,0,Wunderground v.1.15,2013-04-18 08:44:00,
2013-04-18 04:49:00,47.0,39.1,30.27,North,360,1.0,3.0,74,0.00,,,0.00,0,Wunderground v.1.15,2013-04-18 08:49:00,
2013-04-18 04:55:00,47.0,39.1,30.27,North,360,1.0,1.0,74,0.00,,,0.00,0,Wunderground v.1.15,2013-04-18 08:55:00,
2013-04-18 05:01:00,47.1,39.2,30.27,North,360,1.0,1.0,74,0.00,,,0.00,0,Wunderground v.1.15,2013-04-18 09:01:00,
2013-04-18 05:07:00,47.3,39.4,30.27,North,360,0.0,1.0,74,0.00,,,0.00,0,Wunderground v.1.15,2013-04-18 09:07:00,
2013-04-18 05:15:00,47.3,39.4,30.27,North,360,0.0,0.0,74,0.00,,,0.00,0,Wunderground v.1.15,2013-04-18 09:15:00,
2013-04-18 05:25:00,47.4,39.9,30.27,North,360,1.0,1.0,75,0.00,,,0.00,0,Wunderground v.1.15,2013-04-18 09:25:00,
2013-04-18 05:31:00,47.4,39.9,30.27,North,360,1.0,1.0,75,0.00,,,0.00,0,Wunderground v.1.15,2013-04-18 09:31:00,
2013-04-18 05:37:00,47.6,40.1,30.27,North,360,0.0,1.0,75,0.00,,,0.00,0,Wunderground v.1.15,2013-04-18 09:37:00,
2013-04-18 05:44:00,47.6,40.1,30.27,North,360,0.0,0.0,75,0.00,,,0.00,0,Wunderground v.1.15,2013-04-18 09:44:00,
2013-04-18 05:51:00,47.6,40.1,30.28,North,360,0.0,0.0,75,0.00,,,0.00,0,Wunderground v.1.15,2013-04-18 09:51:00,
2013-04-18 05:56:00,47.4,40.2,30.28,North,360,0.0,1.0,76,0.00,,,0.00,0,Wunderground v.1.15,2013-04-18 09:56:00,
2013-04-18 06:02:00,47.4,40.2,30.28,North,360,0.0,0.0,76,0.00,,,0.00,0,Wunderground v.1.15,2013-04-18 10:02:00,
2013-04-18 06:08:00,47.3,40.5,30.28,North,360,0.0,1.0,77,0.00,,,0.00,0,Wunderground v.1.15,2013-04-18 10:08:00,
2013-04-18 06:14:00,47.1,40.6,30.28,North,360,0.0,0.0,78,0.00,,,0.00,0,Wunderground v.1.15,2013-04-18 10:14:00,
2013-04-18 06:20:00,47.1,40.6,30.29,North,360,0.0,0.0,78,0.00,,,0.00,7,Wunderground v.1.15,2013-04-18 10:20:00,
2013-04-18 06:26:00,47.0,40.8,30.29,North,360,0.0,0.0,79,0.00,,,0.00,12,Wunderground v.1.15,2013-04-18 10:26:00,
2013-04-18 06:32:00,47.0,40.8,30.30,North,360,0.0,0.0,79,0.00,,,0.00,21,Wunderground v.1.15,2013-04-18 10:32:00,
2013-04-18 06:38:00,47.0,41.1,30.30,North,360,0.0,0.0,80,0.00,,,0.00,35,Wunderground v.1.15,2013-04-18 10:38:00,
2013-04-18 06:45:00,47.1,41.6,30.30,North,360,0.0,0.0,81,0.00,,,0.00,47,Wunderground v.1.15,2013-04-18 10:45:00,
2013-04-18 06:51:00,47.4,41.9,30.30,North,360,0.0,3.0,81,0.00,,,0.00,56,Wunderground v.1.15,2013-04-18 10:51:00,
2013-04-18 06:57:00,47.9,42.7,30.30,North,360,1.0,3.0,82,0.00,,,0.00,35,Wunderground v.1.15,2013-04-18 10:57:00,
2013-04-18 07:05:00,48.3,43.1,30.30,North,360,1.0,2.0,82,0.00,,,0.00,79,Wunderground v.1.15,2013-04-18 11:05:00,
2013-04-18 07:11:00,48.8,43.5,30.30,North,5,2.0,2.0,82,0.00,,,0.00,95,Wunderground v.1.15,2013-04-18 11:11:00,
2013-04-18 07:17:00,49.1,43.8,30.30,North,360,2.0,4.0,82,0.00,,,0.00,113,Wunderground v.1.15,2013-04-18 11:17:00,
2013-04-18 07:24:00,49.6,44.0,30.30,North,360,3.0,3.0,81,0.00,,,0.00,134,Wunderground v.1.15,2013-04-18 11:24:00,
2013-04-18 07:29:00,49.9,44.3,30.30,North,360,3.0,8.0,81,0.00,,,0.00,148,Wunderground v.1.15,2013-04-18 11:29:00,
2013-04-18 07:35:00,50.4,44.5,30.30,North,360,3.0,4.0,80,0.00,,,0.00,163,Wunderground v.1.15,2013-04-18 11:35:00,
2013-04-18 07:41:00,50.7,44.4,30.30,North,9,3.0,3.0,79,0.00,,,0.00,185,Wunderground v.1.15,2013-04-18 11:41:00,
2013-04-18 07:47:00,51.1,44.5,30.30,North,360,3.0,4.0,78,0.00,,,0.00,109,Wunderground v.1.15,2013-04-18 11:47:00,
2013-04-18 07:54:00,51.4,44.4,30.30,NNE,13,3.0,3.0,77,0.00,,,0.00,95,Wunderground v.1.15,2013-04-18 11:54:00,
2013-04-18 08:01:00,52.0,44.3,30.30,North,10,2.0,4.0,75,0.00,,,0.00,135,Wunderground v.1.15,2013-04-18 12:01:00,
2013-04-18 08:07:00,52.5,44.1,30.30,NNE,13,3.0,4.0,73,0.00,,,0.00,162,Wunderground v.1.15,2013-04-18 12:07:00,
2013-04-18 08:15:00,52.9,43.7,30.30,NNE,13,2.0,3.0,71,0.00,,,0.00,102,Wunderground v.1.15,2013-04-18 12:15:00,
2013-04-18 08:21:00,52.8,43.3,30.30,North,11,3.0,4.0,70,0.00,,,0.00,93,Wunderground v.1.15,2013-04-18 12:21:00,
2013-04-18 08:27:00,52.8,43.3,30.30,NNE,15,3.0,4.0,70,0.00,,,0.00,105,Wunderground v.1.15,2013-04-18 12:27:00,
2013-04-18 08:33:00,52.9,43.0,30.30,North,360,2.0,4.0,69,0.00,,,0.00,149,Wunderground v.1.15,2013-04-18 12:33:00,
2013-04-18 08:41:00,53.2,42.5,30.30,NNE,15,3.0,3.0,67,0.00,,,0.00,169,Wunderground v.1.15,2013-04-18 12:41:00,
2013-04-18 08:47:00,53.5,42.4,30.30,North,360,3.0,7.0,66,0.00,,,0.00,169,Wunderground v.1.15,2013-04-18 12:47:00,
2013-04-18 08:54:00,54.1,42.2,30.30,NNE,12,3.0,7.0,64,0.00,,,0.00,446,Wunderground v.1.15,2013-04-18 12:54:00,
2013-04-18 09:00:00,54.8,41.6,30.30,NNE,17,3.0,3.0,61,0.00,,,0.00,503,Wunderground v.1.15,2013-04-18 13:00:00,
2013-04-18 09:06:00,55.7,40.2,30.30,NNE,13,4.0,6.0,56,0.00,,,0.00,439,Wunderground v.1.15,2013-04-18 13:06:00,
2013-04-18 09:12:00,56.5,40.0,30.30,North,11,4.0,4.0,54,0.00,,,0.00,392,Wunderground v.1.15,2013-04-18 13:12:00,
2013-04-18 09:17:00,56.9,39.9,30.30,NNE,21,3.0,4.0,53,0.00,,,0.00,244,Wunderground v.1.15,2013-04-18 13:17:00,
2013-04-18 09:24:00,57.0,39.0,30.30,North,11,3.0,8.0,51,0.00,,,0.00,243,Wunderground v.1.15,2013-04-18 13:24:00,
2013-04-18 09:36:00,57.0,38.5,30.30,NNE,13,4.0,4.0,50,0.00,,,0.00,253,Wunderground v.1.15,2013-04-18 13:36:00,
2013-04-18 09:48:00,57.5,38.5,30.30,NNE,13,4.0,8.0,49,0.00,,,0.00,221,Wunderground v.1.15,2013-04-18 13:48:00,
2013-04-18 09:57:00,58.0,37.9,30.30,NNE,15,3.0,3.0,47,0.00,,,0.00,209,Wunderground v.1.15,2013-04-18 13:57:00,
2013-04-18 10:08:00,58.6,33.0,30.30,NNE,22,4.0,4.0,38,0.00,,,0.00,181,Wunderground v.1.15,2013-04-18 14:08:00,
2013-04-18 10:18:00,59.0,32.7,30.31,North,360,5.0,7.0,37,0.00,,,0.00,178,Wunderground v.1.15,2013-04-18 14:18:00,
2013-04-18 10:28:00,59.3,32.3,30.31,North,360,5.0,8.0,36,0.00,,,0.00,251,Wunderground v.1.15,2013-04-18 14:28:00,
2013-04-18 10:37:00,59.6,31.2,30.30,NNE,19,5.0,8.0,34,0.00,,,0.00,287,Wunderground v.1.15,2013-04-18 14:37:00,
2013-04-18 10:47:00,59.5,31.8,30.30,NNE,22,7.0,7.0,35,0.00,,,0.00,318,Wunderground v.1.15,2013-04-18 14:47:00,
2013-04-18 10:58:00,59.6,30.4,30.30,North,360,6.0,9.0,33,0.00,,,0.00,316,Wunderground v.1.15,2013-04-18 14:58:00,
2013-04-18 11:08:00,59.3,30.9,30.30,North,11,7.0,7.0,34,0.00,,,0.00,281,Wunderground v.1.15,2013-04-18 15:08:00,
2013-04-18 11:19:00,59.6,31.9,30.30,NNE,13,5.0,10.0,35,0.00,,,0.00,281,Wunderground v.1.15,2013-04-18 15:19:00,
2013-04-18 11:28:00,59.5,31.1,30.30,NNE,15,6.0,10.0,34,0.00,,,0.00,237,Wunderground v.1.15,2013-04-18 15:28:00,
2013-04-18 11:38:00,59.5,31.8,30.30,NNE,17,6.0,7.0,35,0.00,,,0.00,250,Wunderground v.1.15,2013-04-18 15:38:00,
2013-04-18 11:48:00,59.2,31.5,30.30,NNE,13,7.0,7.0,35,0.00,,,0.00,216,Wunderground v.1.15,2013-04-18 15:48:00,
2013-04-18 11:58:00,59.2,32.2,30.30,NNE,18,6.0,6.0,36,0.00,,,0.00,221,Wunderground v.1.15,2013-04-18 15:58:00,
2013-04-18 12:07:00,59.3,31.6,30.29,NNE,25,5.0,8.0,35,0.00,,,0.00,255,Wunderground v.1.15,2013-04-18 16:07:00,
2013-04-18 12:17:00,59.6,31.9,30.29,NNE,17,5.0,7.0,35,0.00,,,0.00,346,Wunderground v.1.15,2013-04-18 16:17:00,
2013-04-18 12:27:00,59.9,31.4,30.29,NNE,15,6.0,8.0,34,0.00,,,0.00,341,Wunderground v.1.15,2013-04-18 16:27:00,
2013-04-18 12:37:00,59.9,30.7,30.28,NNE,15,6.0,7.0,33,0.00,,,0.00,345,Wunderground v.1.15,2013-04-18 16:37:00,
2013-04-18 12:47:00,59.6,32.6,30.27,NNE,22,6.0,6.0,36,0.00,,,0.00,214,Wunderground v.1.15,2013-04-18 16:47:00,
2013-04-18 12:54:00,59.5,33.9,30.27,North,360,5.0,7.0,38,0.00,,,0.00,181,Wunderground v.1.15,2013-04-18 16:54:00,
2013-04-18 13:02:00,59.2,33.6,30.28,NNE,21,5.0,5.0,38,0.00,,,0.00,132,Wunderground v.1.15,2013-04-18 17:02:00,
2013-04-18 13:08:00,58.9,34.6,30.28,NNE,17,5.0,5.0,40,0.00,,,0.00,105,Wunderground v.1.15,2013-04-18 17:08:00,
2013-04-18 13:14:00,58.6,35.0,30.28,NNE,18,5.0,5.0,41,0.00,,,0.00,139,Wunderground v.1.15,2013-04-18 17:14:00,
2013-04-18 13:19:00,58.4,35.4,30.28,NNE,25,6.0,6.0,42,0.00,,,0.00,174,Wunderground v.1.15,2013-04-18 17:19:00,
2013-04-18 13:25:00,58.4,36.6,30.28,NNE,13,5.0,14.0,44,0.00,,,0.00,178,Wunderground v.1.15,2013-04-18 17:25:00,
2013-04-18 13:31:00,58.6,37.3,30.27,NNE,24,4.0,4.0,45,0.00,,,0.00,211,Wunderground v.1.15,2013-04-18 17:31:00,
2013-04-18 13:38:00,58.6,38.4,30.27,North,11,4.0,5.0,47,0.00,,,0.00,185,Wunderground v.1.15,2013-04-18 17:38:00,
2013-04-18 13:44:00,58.6,39.0,30.27,NNE,15,4.0,7.0,48,0.00,,,0.00,144,Wunderground v.1.15,2013-04-18 17:44:00,
2013-04-18 13:49:00,58.3,39.2,30.26,North,11,4.0,7.0,49,0.00,,,0.00,148,Wunderground v.1.15,2013-04-18 17:49:00,
2013-04-18 13:55:00,58.0,40.0,30.26,NNE,21,5.0,7.0,51,0.00,,,0.00,185,Wunderground v.1.15,2013-04-18 17:55:00,
2013-04-18 14:01:00,58.1,41.0,30.26,NNE,18,5.0,5.0,53,0.00,,,0.00,232,Wunderground v.1.15,2013-04-18 18:01:00,
2013-04-18 14:07:00,58.1,41.5,30.26,NNE,15,5.0,9.0,54,0.00,,,0.00,195,Wunderground v.1.15,2013-04-18 18:07:00,
2013-04-18 14:14:00,58.0,41.9,30.26,NNE,27,6.0,6.0,55,0.00,,,0.00,165,Wunderground v.1.15,2013-04-18 18:14:00,
2013-04-18 14:21:00,57.8,41.7,30.25,NNE,15,5.0,10.0,55,0.00,,,0.00,199,Wunderground v.1.15,2013-04-18 18:21:00,
2013-04-18 14:27:00,57.6,42.0,30.25,NNE,19,6.0,10.0,56,0.00,,,0.00,160,Wunderground v.1.15,2013-04-18 18:27:00,
2013-04-18 14:34:00,57.5,42.4,30.24,NNE,12,7.0,11.0,57,0.00,,,0.00,114,Wunderground v.1.15,2013-04-18 18:34:00,
2013-04-18 14:39:00,57.5,42.4,30.24,NNE,17,5.0,11.0,57,0.00,,,0.00,128,Wunderground v.1.15,2013-04-18 18:39:00,
2013-04-18 14:45:00,57.5,42.8,30.24,NNE,19,4.0,5.0,58,0.00,,,0.00,142,Wunderground v.1.15,2013-04-18 18:45:00,
2013-04-18 14:55:00,57.6,42.9,30.24,NNE,13,4.0,8.0,58,0.00,,,0.00,91,Wunderground v.1.15,2013-04-18 18:55:00,
2013-04-18 15:04:00,57.5,43.3,30.24,NNE,16,5.0,6.0,59,0.00,,,0.00,60,Wunderground v.1.15,2013-04-18 19:04:00,
2013-04-18 15:09:00,57.5,43.3,30.24,NNE,18,4.0,5.0,59,0.00,,,0.00,60,Wunderground v.1.15,2013-04-18 19:09:00,
2013-04-18 15:15:00,57.3,43.1,30.24,NNE,22,5.0,9.0,59,0.00,,,0.00,53,Wunderground v.1.15,2013-04-18 19:15:00,
2013-04-18 15:25:00,57.2,43.9,30.23,NNE,18,5.0,5.0,61,0.00,,,0.00,104,Wunderground v.1.15,2013-04-18 19:25:00,
2013-04-18 15:31:00,57.2,45.1,30.23,NNE,21,5.0,5.0,64,0.00,,,0.00,84,Wunderground v.1.15,2013-04-18 19:31:00,
2013-04-18 15:37:00,56.7,45.5,30.23,NNE,16,5.0,7.0,66,0.00,,,0.00,79,Wunderground v.1.15,2013-04-18 19:37:00,
2013-04-18 15:43:00,56.6,46.2,30.23,North,360,5.0,9.0,68,0.00,,,0.00,47,Wunderground v.1.15,2013-04-18 19:43:00,
2013-04-18 15:51:00,56.3,46.3,30.22,NNE,20,4.0,4.0,69,0.00,,,0.00,32,Wunderground v.1.15,2013-04-18 19:51:00,
2013-04-18 15:56:00,56.2,46.5,30.22,NNE,22,4.0,4.0,70,0.00,,,0.00,51,Wunderground v.1.15,2013-04-18 19:56:00,
2013-04-18 16:02:00,56.0,47.1,30.22,NNE,19,5.0,6.0,72,0.00,,,0.00,67,Wunderground v.1.15,2013-04-18 20:02:00,
2013-04-18 16:08:00,55.9,47.4,30.22,NNE,14,5.0,6.0,73,0.00,,,0.00,98,Wunderground v.1.15,2013-04-18 20:08:00,
2013-04-18 16:14:00,55.6,47.8,30.22,NNE,15,4.0,6.0,75,0.00,,,0.00,74,Wunderground v.1.15,2013-04-18 20:14:00,
2013-04-18 16:22:00,55.3,48.2,30.21,North,10,5.0,5.0,77,0.00,,,0.00,69,Wunderground v.1.15,2013-04-18 20:22:00,
2013-04-18 16:27:00,55.0,48.3,30.21,NNE,24,6.0,6.0,78,0.00,,,0.00,49,Wunderground v.1.15,2013-04-18 20:27:00,
2013-04-18 16:34:00,54.8,48.4,30.20,NNE,22,5.0,5.0,79,0.00,,,0.00,42,Wunderground v.1.15,2013-04-18 20:34:00,
2013-04-18 16:42:00,54.7,48.3,30.20,North,360,5.0,5.0,79,0.00,,,0.00,42,Wunderground v.1.15,2013-04-18 20:42:00,
2013-04-18 16:47:00,54.5,48.1,30.20,North,360,5.0,5.0,79,0.00,,,0.00,39,Wunderground v.1.15,2013-04-18 20:47:00,
2013-04-18 16:55:00,54.4,48.4,30.20,NNE,22,4.0,4.0,80,0.00,,,0.01,33,Wunderground v.1.15,2013-04-18 20:55:00,
2013-04-18 17:04:00,54.1,48.4,30.20,North,360,4.0,4.0,81,0.00,,,0.01,30,Wunderground v.1.15,2013-04-18 21:04:00,
2013-04-18 17:09:00,54.1,48.4,30.20,NNE,23,3.0,4.0,81,0.00,,,0.01,28,Wunderground v.1.15,2013-04-18 21:09:00,
2013-04-18 17:15:00,54.1,48.7,30.20,NNE,17,3.0,3.0,82,0.00,,,0.01,25,Wunderground v.1.15,2013-04-18 21:15:00,
2013-04-18 17:21:00,53.9,48.5,30.20,NNE,22,3.0,4.0,82,0.00,,,0.01,44,Wunderground v.1.15,2013-04-18 21:21:00,
2013-04-18 17:27:00,54.1,48.7,30.20,NNE,20,3.0,5.0,82,0.00,,,0.01,25,Wunderground v.1.15,2013-04-18 21:27:00,
2013-04-18 17:34:00,54.1,48.7,30.19,NNE,21,3.0,5.0,82,0.00,,,0.01,23,Wunderground v.1.15,2013-04-18 21:34:00,
2013-04-18 17:39:00,54.2,48.5,30.19,NNE,17,4.0,8.0,81,0.00,,,0.01,30,Wunderground v.1.15,2013-04-18 21:39:00,
2013-04-18 17:45:00,54.4,48.7,30.19,NNE,20,5.0,5.0,81,0.00,,,0.01,21,Wunderground v.1.15,2013-04-18 21:45:00,
2013-04-18 17:51:00,54.4,49.0,30.19,NNE,20,3.0,3.0,82,0.00,,,0.01,18,Wunderground v.1.15,2013-04-18 21:51:00,
2013-04-18 17:57:00,54.2,48.8,30.19,NNE,22,3.0,7.0,82,0.00,,,0.01,26,Wunderground v.1.15,2013-04-18 21:57:00,
2013-04-18 18:05:00,54.2,49.1,30.18,NNE,19,4.0,4.0,83,0.00,,,0.01,30,Wunderground v.1.15,2013-04-18 22:05:00,
2013-04-18 18:11:00,54.2,49.1,30.18,NNE,23,4.0,4.0,83,0.00,,,0.01,25,Wunderground v.1.15,2013-04-18 22:11:00,
2013-04-18 18:17:00,54.2,49.1,30.18,North,360,4.0,6.0,83,0.00,,,0.01,18,Wunderground v.1.15,2013-04-18 22:17:00,
2013-04-18 18:23:00,54.2,49.1,30.18,NNE,17,4.0,5.0,83,0.00,,,0.01,14,Wunderground v.1.15,2013-04-18 22:23:00,
2013-04-18 18:28:00,54.2,49.1,30.18,North,360,4.0,5.0,83,0.00,,,0.01,18,Wunderground v.1.15,2013-04-18 22:28:00,
2013-04-18 18:34:00,54.2,49.1,30.17,NNE,22,3.0,4.0,83,0.00,,,0.01,12,Wunderground v.1.15,2013-04-18 22:34:00,
2013-04-18 18:41:00,54.4,49.3,30.17,NNE,18,3.0,3.0,83,0.00,,,0.01,9,Wunderground v.1.15,2013-04-18 22:41:00,
2013-04-18 18:46:00,54.4,49.3,30.17,NNE,18,4.0,6.0,83,0.00,,,0.01,11,Wunderground v.1.15,2013-04-18 22:46:00,
2013-04-18 18:52:00,54.4,49.3,30.17,NNE,21,5.0,5.0,83,0.00,,,0.01,11,Wunderground v.1.15,2013-04-18 22:52:00,
2013-04-18 18:58:00,54.5,49.4,30.17,NNE,22,4.0,6.0,83,0.00,,,0.01,9,Wunderground v.1.15,2013-04-18 22:58:00,
2013-04-18 19:04:00,54.5,49.4,30.16,NNE,13,3.0,3.0,83,0.00,,,0.01,5,Wunderground v.1.15,2013-04-18 23:04:00,
2013-04-18 19:10:00,54.5,49.4,30.16,NNE,22,3.0,4.0,83,0.00,,,0.01,0,Wunderground v.1.15,2013-04-18 23:10:00,
2013-04-18 19:16:00,54.7,50.0,30.16,North,360,3.0,3.0,84,0.00,,,0.01,0,Wunderground v.1.15,2013-04-18 23:16:00,
2013-04-18 19:22:00,54.7,50.0,30.16,North,360,2.0,2.0,84,0.00,,,0.01,0,Wunderground v.1.15,2013-04-18 23:22:00,
2013-04-18 19:28:00,54.8,50.1,30.16,NNE,19,2.0,3.0,84,0.00,,,0.01,0,Wunderground v.1.15,2013-04-18 23:28:00,
2013-04-18 19:34:00,54.8,50.1,30.16,NNE,19,3.0,5.0,84,0.00,,,0.01,0,Wunderground v.1.15,2013-04-18 23:34:00,
2013-04-18 19:39:00,54.8,50.1,30.16,NNE,16,3.0,6.0,84,0.00,,,0.01,0,Wunderground v.1.15,2013-04-18 23:39:00,
2013-04-18 19:45:00,55.0,50.6,30.16,NNE,15,2.0,4.0,85,0.00,,,0.01,0,Wunderground v.1.15,2013-04-18 23:45:00,
2013-04-18 19:51:00,55.0,50.6,30.16,North,360,2.0,2.0,85,0.00,,,0.01,0,Wunderground v.1.15,2013-04-18 23:51:00,
2013-04-18 19:57:00,55.0,50.6,30.16,NNE,17,2.0,2.0,85,0.00,,,0.01,0,Wunderground v.1.15,2013-04-18 23:57:00,
2013-04-18 20:04:00,55.0,50.6,30.15,North,360,2.0,5.0,85,0.00,,,0.01,0,Wunderground v.1.15,2013-04-19 00:04:00,
2013-04-18 20:09:00,55.0,50.6,30.15,North,360,2.0,2.0,85,0.00,,,0.01,0,Wunderground v.1.15,2013-04-19 00:09:00,
2013-04-18 20:15:00,55.1,50.7,30.15,NNE,17,2.0,4.0,85,0.00,,,0.01,0,Wunderground v.1.15,2013-04-19 00:15:00,
2013-04-18 20:21:00,55.0,50.6,30.15,North,360,2.0,4.0,85,0.00,,,0.01,0,Wunderground v.1.15,2013-04-19 00:21:00,
2013-04-18 20:27:00,55.0,50.6,30.15,NNE,17,2.0,4.0,85,0.00,,,0.01,0,Wunderground v.1.15,2013-04-19 00:27:00,
2013-04-18 20:35:00,55.0,50.6,30.15,NNE,17,1.0,1.0,85,0.00,,,0.01,0,Wunderground v.1.15,2013-04-19 00:35:00,
2013-04-18 20:41:00,55.0,50.6,30.15,North,360,1.0,1.0,85,0.00,,,0.01,0,Wunderground v.1.15,2013-04-19 00:41:00,
2013-04-18 20:47:00,55.1,50.7,30.14,NNE,19,2.0,2.0,85,0.00,,,0.01,0,Wunderground v.1.15,2013-04-19 00:47:00,
2013-04-18 20:54:00,55.1,50.7,30.14,North,360,1.0,1.0,85,0.00,,,0.01,0,Wunderground v.1.15,2013-04-19 00:54:00,
2013-04-18 20:59:00,55.1,50.7,30.14,NNE,17,2.0,5.0,85,0.00,,,0.01,0,Wunderground v.1.15,2013-04-19 00:59:00,
2013-04-18 21:05:00,55.1,50.7,30.13,North,360,2.0,5.0,85,0.00,,,0.01,0,Wunderground v.1.15,2013-04-19 01:05:00,
2013-04-18 21:11:00,55.1,50.7,30.13,NNE,19,2.0,3.0,85,0.00,,,0.01,0,Wunderground v.1.15,2013-04-19 01:11:00,
2013-04-18 21:17:00,55.3,50.9,30.13,NNE,17,2.0,4.0,85,0.00,,,0.01,0,Wunderground v.1.15,2013-04-19 01:17:00,
2013-04-18 21:24:00,55.3,51.2,30.13,NNE,17,1.0,1.0,86,0.00,,,0.01,0,Wunderground v.1.15,2013-04-19 01:24:00,
2013-04-18 21:31:00,55.4,51.3,30.12,NNE,19,1.0,2.0,86,0.00,,,0.01,0,Wunderground v.1.15,2013-04-19 01:31:00,
2013-04-18 21:36:00,55.7,51.9,30.12,NNE,16,2.0,4.0,87,0.00,,,0.01,0,Wunderground v.1.15,2013-04-19 01:36:00,
2013-04-18 21:43:00,55.9,52.1,30.12,NNE,24,1.0,2.0,87,0.00,,,0.01,0,Wunderground v.1.15,2013-04-19 01:43:00,
2013-04-18 21:52:00,56.0,52.5,30.12,NNE,17,2.0,2.0,88,0.00,,,0.01,0,Wunderground v.1.15,2013-04-19 01:52:00,
2013-04-18 21:58:00,56.0,52.5,30.12,NNE,17,2.0,2.0,88,0.00,,,0.01,0,Wunderground v.1.15,2013-04-19 01:58:00,
2013-04-18 22:06:00,56.2,53.0,30.11,NNE,22,2.0,7.0,89,0.00,,,0.01,0,Wunderground v.1.15,2013-04-19 02:06:00,
2013-04-18 22:12:00,56.2,53.0,30.11,NNE,22,4.0,6.0,89,0.00,,,0.01,0,Wunderground v.1.15,2013-04-19 02:12:00,
2013-04-18 22:17:00,56.2,53.3,30.11,North,360,4.0,6.0,90,0.00,,,0.01,0,Wunderground v.1.15,2013-04-19 02:17:00,
2013-04-18 22:24:00,56.0,53.1,30.11,NNE,21,4.0,4.0,90,0.00,,,0.01,0,Wunderground v.1.15,2013-04-19 02:24:00,
2013-04-18 22:29:00,56.0,53.1,30.11,NNE,21,3.0,6.0,90,0.00,,,0.01,0,Wunderground v.1.15,2013-04-19 02:29:00,
2013-04-18 22:35:00,56.0,53.1,30.10,NNE,21,3.0,4.0,90,0.00,,,0.01,0,Wunderground v.1.15,2013-04-19 02:35:00,
2013-04-18 22:41:00,56.0,53.4,30.10,NNE,22,2.0,2.0,91,0.00,,,0.01,0,Wunderground v.1.15,2013-04-19 02:41:00,
2013-04-18 22:47:00,56.0,53.4,30.09,NNE,22,1.0,2.0,91,0.00,,,0.01,0,Wunderground v.1.15,2013-04-19 02:47:00,
2013-04-18 22:55:00,56.0,53.7,30.09,North,360,1.0,1.0,92,0.00,,,0.01,0,Wunderground v.1.15,2013-04-19 02:55:00,
2013-04-18 23:01:00,56.2,53.9,30.08,NNE,28,2.0,2.0,92,0.00,,,0.01,0,Wunderground v.1.15,2013-04-19 03:01:00,
2013-04-18 23:07:00,56.0,53.7,30.08,NNE,22,2.0,2.0,92,0.00,,,0.01,0,Wunderground v.1.15,2013-04-19 03:07:00,
2013-04-18 23:14:00,55.9,53.9,30.08,North,360,2.0,6.0,93,0.00,,,0.01,0,Wunderground v.1.15,2013-04-19 03:14:00,
2013-04-18 23:21:00,55.7,53.7,30.08,NNE,22,4.0,4.0,93,0.00,,,0.01,0,Wunderground v.1.15,2013-04-19 03:21:00,
2013-04-18 23:27:00,55.4,53.7,30.08,North,360,3.0,4.0,94,0.00,,,0.01,0,Wunderground v.1.15,2013-04-19 03:27:00,
2013-04-18 23:34:00,55.4,53.7,30.07,NNE,23,2.0,2.0,94,0.00,,,0.01,0,Wunderground v.1.15,2013-04-19 03:34:00,
2013-04-18 23:39:00,55.3,53.9,30.07,NNE,22,1.0,3.0,95,0.00,,,0.01,0,Wunderground v.1.15,2013-04-19 03:39:00,
2013-04-18 23:45:00,55.3,53.9,30.07,North,360,1.0,1.0,95,0.00,,,0.01,0,Wunderground v.1.15,2013-04-19 03:45:00,
2013-04-18 23:51:00,55.3,53.9,30.07,North,360,2.0,4.0,95,0.00,,,0.01,0,Wunderground v.1.15,2013-04-19 03:51:00,
2013-04-18 23:57:00,55.1,53.7,30.07,North,360,2.0,4.0,95,0.00,,,0.01,0,Wunderground v.1.15,2013-04-19 03:57:00,